Weather History for Pampa / Mesa Vista, TX

Change the Weather History Date:

Sunday, March 17, 2013

  Actual Average (KBGD) Record (KBGD)
Temperature  
Mean Temperature 50 °F 50 °F  
Max Temperature 68 °F 63 °F 89 °F (2011)
Min Temperature 32 °F 37 °F 19 °F (1988)
Degree Days  
Heating Degree Days 15 15  
Month to date heating degree days 301  
Since 1 July heating degree days 3294  
Cooling Degree Days 0 0  
Month to date cooling degree days 0  
Year to date cooling degree days 0  
Moisture  
Dew Point 31 °F    
Average Humidity 58    
Maximum Humidity 87    
Minimum Humidity 28    
Precipitation  
Precipitation 0.00 in 0.04 in 1.74 in (1961)
Month to date precipitation 0.74  
Year to date precipitation 1.95  
Snow  
Snow 0.00 in - 5.20 in (1988)
Month to date snowfall  
Since 1 July snowfall  
Snow Depth -    
Sea Level Pressure  
Sea Level Pressure 29.77 in    
Wind  
Wind Speed 9 mph (East)    
Max Wind Speed 22 mph    
Max Gust Speed 30 mph    
Visibility 10 miles    
Events      
T = Trace of Precipitation, MM = Missing Value Source: NWS Daily Summary

Daily Weather History Graph

Daily Weather History Graph

Search for Another Location

Airport:

Trip Planner

Search our weather history database for the weather conditions in past years. The results will help you decide how hot, cold, wet, or windy it might be!

Date:

Astronomy

Mar. 17, 2013 Rise Set
Actual Time 7:51 AM CDT 7:53 PM CDT
Civil Twilight 7:26 AM CDT 8:19 PM CDT
Nautical Twilight 6:56 AM CDT 8:48 PM CDT
Astronomical Twilight 6:26 AM CDT 9:19 PM CDT
Moon 11:16 AM CDT (3/17) 12:53 AM CDT (3/17)
Length of Visible Light 12h 53m
Length of Day
12h 01m
Waxing Crescent, 31% of the Moon is Illuminated
Mar 17
Waxing Crescent
Mar 19
First Quarter
Mar 27
Full
Apr 2
Last Quarter
Apr 10
New

Hourly Weather History & Observations

Time (CDT) Temp. Windchill Dew Point Humidity Pressure Visibility Wind Dir Wind Speed Gust Speed Precip Events Conditions
12:15 AM 42.8 °F 36.2 °F 32.0 °F 66% 29.93 in 10.0 mi NE 12.7 mph - N/A   Clear
12:35 AM 41.0 °F 35.2 °F 32.0 °F 70% 29.93 in 10.0 mi ENE 9.2 mph 13.8 mph N/A   Clear
12:55 AM 41.0 °F 34.7 °F 32.0 °F 70% 29.91 in 10.0 mi NE 10.4 mph - N/A   Clear
1:15 AM 41.0 °F 34.7 °F 32.0 °F 70% 29.90 in 10.0 mi NE 10.4 mph 13.8 mph N/A   Clear
1:35 AM 41.0 °F 34.3 °F 30.2 °F 65% 29.91 in 10.0 mi NNE 11.5 mph - N/A   Clear
1:55 AM 39.2 °F 31.2 °F 30.2 °F 70% 29.90 in 10.0 mi NE 13.8 mph 18.4 mph N/A   Clear
2:15 AM 39.2 °F 32.0 °F 30.2 °F 70% 29.90 in 10.0 mi NE 11.5 mph - N/A   Scattered Clouds
2:35 AM 39.2 °F 33.6 °F 30.2 °F 70% 29.90 in 10.0 mi NNE 8.1 mph - N/A   Scattered Clouds
2:55 AM 37.4 °F 31.4 °F 30.2 °F 75% 29.91 in 10.0 mi NNE 8.1 mph - N/A   Scattered Clouds
3:15 AM 37.4 °F 32.1 °F 30.2 °F 75% 29.91 in 10.0 mi North 6.9 mph - N/A   Mostly Cloudy
3:35 AM 37.4 °F 32.1 °F 30.2 °F 75% 29.91 in 10.0 mi NNE 6.9 mph - N/A   Mostly Cloudy
3:55 AM 37.4 °F 31.4 °F 30.2 °F 75% 29.92 in 10.0 mi North 8.1 mph - N/A   Scattered Clouds
4:15 AM 35.6 °F 28.0 °F 30.2 °F 81% 29.90 in 10.0 mi NNE 10.4 mph - N/A   Scattered Clouds
4:35 AM 35.6 °F 28.0 °F 28.4 °F 75% 29.89 in 10.0 mi North 10.4 mph - N/A   Scattered Clouds
4:55 AM 35.6 °F 28.0 °F 28.4 °F 75% 29.88 in 10.0 mi NNE 10.4 mph - N/A   Scattered Clouds
5:15 AM 35.6 °F 28.6 °F 28.4 °F 75% 29.86 in 10.0 mi NE 9.2 mph - N/A   Mostly Cloudy
5:35 AM 35.6 °F 28.0 °F 28.4 °F 75% 29.87 in 10.0 mi NE 10.4 mph - N/A   Scattered Clouds
5:55 AM 33.8 °F 27.7 °F 28.4 °F 81% 29.88 in 10.0 mi ENE 6.9 mph - N/A   Mostly Cloudy
6:15 AM 33.8 °F 29.6 °F 28.4 °F 81% 29.89 in 10.0 mi ENE 4.6 mph - N/A   Scattered Clouds
6:35 AM 32.0 °F - 28.4 °F 87% 29.91 in 10.0 mi Calm Calm - N/A   Clear
6:55 AM 32.0 °F 26.4 °F 28.4 °F 87% 29.88 in 10.0 mi NE 5.8 mph - N/A   Clear
7:15 AM 33.8 °F 28.6 °F 28.4 °F 81% 29.89 in 10.0 mi NE 5.8 mph - N/A   Clear
7:35 AM 32.0 °F 26.4 °F 28.4 °F 87% 29.88 in 10.0 mi NNE 5.8 mph - N/A   Scattered Clouds
7:55 AM 32.0 °F 28.7 °F 28.4 °F 87% 29.87 in 10.0 mi NNE 3.5 mph - N/A   Clear
8:15 AM 32.0 °F - 28.4 °F 87% 29.90 in 10.0 mi Calm Calm - N/A   Clear
8:35 AM 32.0 °F 28.7 °F 28.4 °F 87% 29.88 in 10.0 mi NNW 3.5 mph - N/A   Clear
8:55 AM 33.8 °F 28.6 °F 28.4 °F 81% 29.90 in 10.0 mi North 5.8 mph - N/A   Clear
9:15 AM 33.8 °F 28.6 °F 28.4 °F 81% 29.90 in 10.0 mi North 5.8 mph - N/A   Clear
9:35 AM 35.6 °F 31.7 °F 28.4 °F 75% 29.91 in 10.0 mi NNW 4.6 mph - N/A   Clear
9:55 AM 35.6 °F 29.2 °F 28.4 °F 75% 29.91 in 10.0 mi NW 8.1 mph - N/A   Clear
10:15 AM 37.4 °F - 28.4 °F 70% 29.89 in 10.0 mi Calm Calm - N/A   Clear
10:35 AM 37.4 °F 34.9 °F 28.4 °F 70% 29.88 in 10.0 mi WNW 3.5 mph - N/A   Clear
10:55 AM 41.0 °F - 28.4 °F 61% 29.87 in 10.0 mi Calm Calm - N/A   Clear
11:15 AM 41.0 °F - 28.4 °F 61% 29.86 in 10.0 mi Calm Calm - N/A   Clear
11:35 AM 42.8 °F - 28.4 °F 57% 29.86 in 10.0 mi Calm Calm - N/A   Clear
11:55 AM 44.6 °F 42.2 °F 28.4 °F 53% 29.85 in 10.0 mi NE 4.6 mph - N/A   Clear
12:15 PM 44.6 °F 43.1 °F 28.4 °F 53% 29.84 in 10.0 mi NW 3.5 mph - N/A   Clear
12:35 PM 46.4 °F - 28.4 °F 50% 29.82 in 10.0 mi Calm Calm - N/A   Clear
12:55 PM 50.0 °F - 28.4 °F 43% 29.80 in 10.0 mi ESE 4.6 mph - N/A   Clear
1:15 PM 50.0 °F - 28.4 °F 43% 29.79 in 10.0 mi Calm Calm - N/A   Clear
1:35 PM 50.0 °F - 28.4 °F 43% 29.78 in 10.0 mi SSW 3.5 mph - N/A   Clear
1:55 PM 51.8 °F - 28.4 °F 41% 29.76 in 10.0 mi SSE 5.8 mph - N/A   Clear
2:15 PM 55.4 °F - 28.4 °F 36% 29.75 in 10.0 mi SSW 5.8 mph - N/A   Clear
2:35 PM 53.6 °F - 28.4 °F 38% 29.73 in 10.0 mi South 9.2 mph - N/A   Clear
2:55 PM 55.4 °F - 30.2 °F 38% 29.71 in 10.0 mi SSE 5.8 mph - N/A   Clear
3:15 PM 55.4 °F - 30.2 °F 38% 29.69 in 10.0 mi SSE 5.8 mph - N/A   Clear
3:35 PM 59.0 °F - 30.2 °F 34% 29.66 in 10.0 mi South 8.1 mph - N/A   Clear
3:55 PM 60.8 °F - 30.2 °F 31% 29.64 in 10.0 mi SSE 11.5 mph 17.3 mph N/A   Clear
4:15 PM 62.6 °F - 32.0 °F 32% 29.62 in 10.0 mi South 11.5 mph - N/A   Clear
4:35 PM 62.6 °F - 32.0 °F 32% 29.60 in 10.0 mi SSE 15.0 mph 20.7 mph N/A   Clear
4:55 PM 66.2 °F - 32.0 °F 28% 29.59 in 10.0 mi SSE 11.5 mph - N/A   Clear
5:15 PM 64.4 °F - 32.0 °F 30% 29.57 in 10.0 mi South 16.1 mph 21.9 mph N/A   Clear
5:35 PM 64.4 °F - 32.0 °F 30% 29.57 in 10.0 mi South 20.7 mph 24.2 mph N/A   Clear
5:55 PM 64.4 °F - 32.0 °F 30% 29.56 in 10.0 mi South 19.6 mph 24.2 mph N/A   Clear
6:15 PM 62.6 °F - 32.0 °F 32% 29.60 in 10.0 mi South 15.0 mph 21.9 mph N/A   Mostly Cloudy
6:35 PM 66.2 °F - 33.8 °F 30% 29.59 in 10.0 mi WSW 10.4 mph - N/A   Overcast
6:55 PM 64.4 °F - 33.8 °F 32% 29.56 in 10.0 mi Calm Calm - N/A   Scattered Clouds
7:15 PM 68.0 °F - 33.8 °F 28% 29.54 in 10.0 mi SSW 13.8 mph 17.3 mph N/A   Clear
7:35 PM 62.6 °F - 35.6 °F 37% 29.55 in 10.0 mi South 20.7 mph 27.6 mph N/A   Clear
7:55 PM 59.0 °F - 35.6 °F 42% 29.55 in 10.0 mi South 20.7 mph 29.9 mph N/A   Clear
8:15 PM 57.2 °F - 37.4 °F 48% 29.56 in 10.0 mi South 21.9 mph 28.8 mph N/A   Clear
8:35 PM 55.4 °F - 37.4 °F 51% 29.56 in 10.0 mi South 20.7 mph 26.5 mph N/A   Clear
9:15 PM 53.6 °F - 35.6 °F 51% 29.57 in 10.0 mi South 20.7 mph 27.6 mph N/A   Clear
9:55 PM 51.8 °F - 33.8 °F 50% 29.58 in 10.0 mi South 20.7 mph 28.8 mph N/A   Clear
10:15 PM 51.8 °F - 35.6 °F 54% 29.59 in 10.0 mi SSE 13.8 mph 24.2 mph N/A   Clear
10:35 PM 50.0 °F - 33.8 °F 54% 29.60 in 10.0 mi NNE 3.5 mph - N/A   Clear
10:55 PM 50.0 °F - 35.6 °F 58% 29.60 in 10.0 mi Calm Calm - N/A   Clear
11:15 PM 50.0 °F - 33.8 °F 54% 29.61 in 10.0 mi Calm Calm - N/A   Clear
11:35 PM 48.2 °F - 33.8 °F 58% 29.60 in 10.0 mi Calm Calm - N/A   Clear
11:55 PM 48.2 °F - 33.8 °F 58% 29.60 in 10.0 mi SSW 4.6 mph - N/A   Clear